User: anonymous   Login
Location: Anjeux
(47.8815°N, 6.2076°E)
Time: 17:30:28
(UTC+00:00)
Language:

CUBESAT XI-V - Orbit

View from above orbital plane
View from above orbital plane
View from above satellite
View from above satellite

Ground track
Ground track

The orbit data is extracted from the following two-line orbital elements,

1 28895U 05043F   21336.90540081  .00000301  00000-0  66273-4 0  9998
2 28895  98.0816 106.7070 0017472  43.6058 316.6522 14.64016814858881
Epoch (UTC): 02 December 2021 21:43:46
Eccentricity: 0.0017472
inclination: 98.0816°
perigee height: 668 km
apogee height: 692 km
right ascension of ascending node: 106.7070°
argument of perigee: 43.6058°
revolutions per day: 14.64016814
mean anomaly at epoch: 316.6522°
orbit number at epoch: 85888

The dashed part of the orbit path shows where the satellite is in the earth's shadow,  

DLR